Regional Weather Roundup
Issued by NWS

Home | Current Version | Previous Version | Text Only | Print | Product List | Glossary On
Versions: 1 2 3 4 5 6 7 8 9 10 11 12 13 14 15 16 17 18 19 20 21 22 23 24 25 26 27 28 29 30 31 32 33 34 35 36 37 38 39 40 41 42 43 44 45 46 47 48 49 50
000
ASUS43 KMKX 221421
RWRWI

WISCONSIN REGIONAL WEATHER ROUNDUP
NATIONAL WEATHER SERVICE MILWAUKEE/SULLIVAN WI
900 AM CDT MON SEP 22 2014

NOTE: "FAIR" INDICATES FEW OR NO CLOUDS BELOW 12,000 FEET WITH NO
SIGNIFICANT WEATHER AND/OR OBSTRUCTIONS TO VISIBILITY.

WIZ001-002-006>008-014>016-023>028-221500-
NORTHWEST WISCONSIN

CITY           SKY/WX    TMP DP  RH WIND       PRES   REMARKS
SUPERIOR ARPT  SUNNY     50  47  92 SW7       30.21R
ASHLAND        SUNNY     52  48  86 SW7       30.21R
HAYWARD        CLOUDY    45  45 100 SW3       30.24R
SIREN          CLOUDY    49  48  98 W3        30.24S FOG
RICE LAKE      PTSUNNY   47  46  97 CALM      30.25S
LADYSMITH      CLOUDY    46  45  97 CALM      30.25S FOG
EAU CLAIRE     SUNNY     51  48  89 SW6       30.25R
MENOMONIE      SUNNY     52  49  90 CALM      30.25S
NEW RICHMOND   FOG       48  48 100 CALM      30.27R VSB 1/4
OSCEOLA        CLOUDY    49  49 100 CALM      30.29S FOG
$$

WIZ003>005-009-010-017-018-221500-
NORTH CENTRAL WISCONSIN

CITY           SKY/WX    TMP DP  RH WIND       PRES   REMARKS
WOODRUFF       SUNNY     52  47  84 W3        30.20S
RHINELANDER    SUNNY     49  44  83 W7        30.21S
EAGLE RIVER    SUNNY     49  49 100 W6        30.20S
LAND O LAKES   PTSUNNY   48  46  90 W5        30.20S
PHILLIPS       SUNNY     49  47  91 W3        30.21S
TOMAHAWK       SUNNY     49  46  90 CALM      30.22S
MEDFORD        SUNNY     49  46  89 SW3       30.23R
MERRILL        SUNNY     47  44  87 CALM      30.22S
$$

WIZ029-030-035-036-043>047-221500-
CENTRAL WISCONSIN

CITY           SKY/WX    TMP DP  RH WIND       PRES   REMARKS
WAUSAU         SUNNY     50  44  80 W5        30.22S
MOSINEE        SUNNY     48  46  93 W6        30.24S
MARSHFIELD     SUNNY     50  47  89 W6        30.24R
STEVENS POINT  SUNNY     48  42  79 W3        30.25S
WAUPACA        SUNNY     54  45  71 W5        30.24S
WAUTOMA        SUNNY     54  47  77 SW3       30.26R
WISC RAPIDS    SUNNY     50  45  83 W3        30.26R
CAMP DOUGLAS   SUNNY     52  52 100 CALM      30.26S
$$

WIZ011>013-019>022-031-037>040-048>050-221500-
NORTHEAST WISCONSIN

CITY           SKY/WX    TMP DP  RH WIND       PRES   REMARKS
ANTIGO         SUNNY     47  43  85 W3        30.22S
STURGEON BAY   MOSUNNY   52  43  71 SW8       30.21F
GREEN BAY      SUNNY     50  45  83 W6        30.23S
MANITOWOC      SUNNY     51  45  79 W5        30.24R
APPLETON       MOSUNNY   43  39  87 W10       30.24
CLINTONVILLE   SUNNY     48  43  81 W6        30.23S
OSHKOSH        SUNNY     50  43  77 W6        30.24S
$$

WIZ032>034-041-042-053>061-221500-
SOUTHWEST WISCONSIN

CITY           SKY/WX    TMP DP  RH WIND       PRES   REMARKS
LA CROSSE      MOSUNNY   50  48  93 S8        30.27S
SPARTA         NOT AVBL
VIROQUA        FAIR      52  50  95 SW5       30.27S
BOSCOBEL       PTSUNNY   49  47  93 CALM      30.30S
PRAIRIE DU CHI PTSUNNY   49  48  96 CALM      30.29S
PLATTEVILLE    FAIR      51  48  92 W3        30.30F
$$

WIZ056-057-062-063-064-067-068-221500-
SOUTH CENTRAL WISCONSIN

CITY           SKY/WX    TMP DP  RH WIND       PRES   REMARKS
BARABOO/DELLS  SUNNY     51  43  72 SW3       30.27S
LONE ROCK      FOG       47  43  86 CALM      30.29S VSB 1/4
WATERTOWN      SUNNY     48  43  83 CALM      30.27R
MADISON        SUNNY     52  42  69 VRB3      30.27S
MIDDLETON      FAIR      54  45  72 W5        30.28S
MONROE         SUNNY     52  43  71 CALM      30.28S
JANESVILLE     SUNNY     50  45  81 CALM      30.28S
$$

WIZ051-052-058>065-066-070>072-221500-
SOUTHEAST WISCONSIN

CITY           SKY/WX    TMP DP  RH WIND       PRES   REMARKS
MILWAUKEE      SUNNY     51  41  68 W6        30.27R
WAUKESHA       SUNNY     48  43  81 W8        30.28R
MILWAUKEE/TIMM SUNNY     48  41  76 W6        30.28R
RACINE         SUNNY     51  42  71 NW5       30.29R
BURLINGTON     SUNNY     48  44  85 NW6       30.27S
KENOSHA        SUNNY     50  43  77 NW6       30.28R
FOND DU LAC    SUNNY     49  43  80 SW6       30.25S
SHEBOYGAN      SUNNY     52  46  80 W7        30.24S
WEST BEND      SUNNY     52  41  66 W5        30.25S
JUNEAU         SUNNY     49  43  80 SW3       30.28R
$$

LSZ147-162-221500-
LAKE SUPERIOR

STATION/POSITION TIME  TEMP    WIND        PRES    WAVE
                       AIR SEA DIR/SP/G            HT/PER
                 (UTC) (F)     (DEG/KT/KT) (MB)    (FT/S)
W MID LAKE BUOY  1350   49 47  240/ 10/ 12 1021.0S   1/ 3
DEVILS ISLAND    1400   52     230/ 15/ 17 1022.0S
PORT WING        1300   48     180/  4/  6 1022.4S
SAXON HARBOR     1340   54     210/  3/ 10 1022.7R
$$

LMZ867-665-643>646-221500-
LAKE MICHIGAN

STATION/POSITION TIME  TEMP    WIND        PRES    WAVE
                       AIR SEA DIR/SP/G            HT/PER
                 (UTC) (F)     (DEG/KT/KT) (MB)    (FT/S)
N MID LAKE BUOY  1350   50 57  250/ 12/ 14 1022.5S   1/ 3
NORTHPORT PIER   1400   52     270/  1/ 10 1022.4F
KEWAUNEE LAKESHO 1400   49     280/  6/  9 1022.2S
SHEBOYGAN LAKESH 1400   50 53  280/  7/  9 1024.5F
PORT WASHINGTON  1340   52     280/  6/  9 1024.7S
ATWATER BUOY     1400   51     280/  6/  8 1025.6R
MILWAUKEE LAKESH 1400   51     280/ 10/ 11   N/A
S MID LAKE BUOY  1350   54 61  340/ 10/ 12 1024.6R   4/ 7
KENOSHA   LAKESH 1400   51     290/  7/  9 1025.1R
$$

TC  - TEMPERATURE IN CELSIUS
VSB - VISIBILITY IN STATUTE MILES
WCI - WIND CHILL INDEX
HX  - HEAT INDEX



USA.gov is the U.S. government's official web portal to all federal, state and local government web resources and services.